Powrót do katalogu

ARIANE 42P+ DEB

LostHEO
NORAD 34187·DEBRIS·🇫🇷 France

Wystrzelony Oct 28, 1992 z Guiana Space Centre

Loading…

Następne Przeloty (najbliższe 24 godziny)

TLE

NieaktualneSource: Space-Track

Epoka: Oct 25, 2012, 23:39 UTC

1 34187U 92072T   12299.98569940 +.00001898 +00000-0 +36331-2 0  9990
2 34187 007.0419 221.4985 6430415 047.4777 351.2718 03.29595849072804

Śledź ARIANE 42P+ DEB w czasie rzeczywistym z AllMySat

Download on the App Store